Theta_e
317 317 317 318 318 317 317 317 317 317 316 316 316 315 314 314 314 313 313 312 312 311 311 310 310 310 310 310 310 310 310 310 311 311 311 311 311 311 311 311 311 311 311 311 311 311 311 310 310 310 310 309 309 308 308 307 306 306 305 305 304 304 303 302 302 302 303 303 303 303 303 303 303 303 302 302 302 302 302 303 303 303 302 302 302
315 315 315 315 315 315 315 314 314 314 314 313 313 313 312 312 311 311 310 310 310 309 309 309 309 309 309 309 309 309 309 309 309 309 309 310 310 310 310 310 310 310 310 310 310 310 310 310 309 309 309 309 308 308 308 306 306 305 305 304 304 303 303 302 301 301 302 302 303 303 303 303 302 302 302 301 301 301 301 301 302 302 302 302 301
313 313 313 313 312 312 312 312 312 312 311 311 311 311 310 310 309 309 308 308 308 308 308 308 308 308 308 308 308 308 307 307 307 307 307 308 308 308 308 308 308 308 308 308 309 309 309 309 309 308 308 308 308 308 307 306 306 305 305 305 304 303 303 302 302 301 301 302 302 302 302 302 302 302 302 301 301 300 300 300 300 301 301 301 301
311 311 311 311 311 311 310 310 310 310 310 310 309 308 308 307 307 307 307 307 307 306 306 306 306 306 306 306 306 306 306 306 306 305 306 306 306 306 306 306 306 307 307 307 307 307 307 307 307 307 307 307 307 307 307 306 306 305 305 305 304 303 303 302 302 301 301 301 301 302 302 302 302 302 302 301 301 300 300 299 299 299 299 299 300
309 309 309 309 309 309 309 309 309 309 308 307 306 306 306 306 305 305 306 305 305 305 305 305 305 305 305 305 305 306 306 305 305 304 304 304 304 304 304 304 304 304 304 305 305 305 305 305 305 305 305 305 305 305 305 305 305 305 304 304 304 303 303 302 302 301 300 300 300 301 301 301 301 301 301 301 300 299 298 297 297 297 297 297 297
308 308 308 308 308 307 307 307 307 306 305 305 305 304 304 304 304 305 305 305 305 305 305 305 305 305 305 305 305 305 305 305 305 304 303 303 302 302 302 302 302 302 302 303 303 303 303 303 303 303 304 304 304 304 304 304 304 304 303 303 303 303 303 302 302 301 300 300 300 300 300 300 300 300 300 300 300 299 297 296 296 295 294 294 294
307 306 306 306 305 305 305 304 304 304 304 304 303 304 304 304 304 304 305 305 305 305 305 305 305 305 305 305 305 305 305 305 304 303 303 302 301 301 301 301 301 301 301 301 301 301 301 301 301 302 302 302 302 303 303 303 303 303 303 303 303 302 302 302 302 301 300 300 300 300 300 300 300 300 300 299 299 298 297 296 295 294 293 293 292
305 304 304 304 303 303 303 303 303 304 304 304 304 305 305 305 305 305 305 305 305 305 305 305 305 305 305 305 305 305 305 304 303 302 302 301 300 300 300 300 300 300 300 300 300 300 299 300 300 300 300 300 301 301 301 302 302 302 302 302 302 302 302 301 301 301 300 300 299 299 299 299 299 299 299 298 297 296 295 295 294 295 294 293 293
304 304 303 303 303 303 303 304 304 304 304 305 305 305 305 305 305 305 305 305 305 304 304 304 304 304 304 304 304 303 304 303 303 302 301 300 300 299 299 299 299 299 299 299 299 299 299 299 299 300 300 300 299 300 300 300 301 301 301 301 301 301 301 301 300 300 300 299 299 299 299 299 299 299 299 298 297 296 296 294 293 293 294 293 293
303 303 303 302 302 303 303 303 303 303 303 303 303 303 303 303 303 303 302 302 302 301 301 301 301 300 300 300 300 300 300 300 300 301 301 300 300 299 299 299 299 299 299 299 299 300 300 300 300 300 300 299 299 299 299 299 299 300 300 300 301 301 301 300 300 300 299 299 299 299 299 299 299 299 299 299 298 297 297 295 293 293 292 292 292
302 302 301 301 301 301 301 301 301 301 301 300 300 300 300 300 300 299 299 299 298 298 297 297 297 297 297 297 296 296 296 297 297 298 298 299 299 299 298 299 299 299 299 299 299 300 300 300 301 301 300 300 299 299 299 299 299 299 299 299 300 300 300 300 299 299 299 298 299 299 298 299 299 299 299 299 299 298 297 295 294 293 292 291 291
300 300 300 299 299 299 299 299 298 298 298 297 297 296 296 296 296 295 295 295 295 294 294 294 294 294 294 294 294 294 294 294 294 295 295 296 297 297 297 298 298 298 298 298 299 299 299 299 300 300 300 300 300 299 299 299 299 298 298 298 299 299 299 299 299 299 299 298 298 298 298 298 299 299 299 299 299 298 297 296 294 293 292 291 291
299 298 298 297 297 296 296 296 295 294 294 294 294 294 294 294 293 293 293 293 293 293 293 293 293 293 293 293 293 293 293 293 293 293 293 294 294 295 296 296 297 297 297 298 298 298 299 299 299 299 299 299 299 299 299 299 299 298 298 298 298 298 298 299 299 299 299 298 298 298 298 298 298 298 299 298 298 298 297 296 294 293 292 292 292
296 295 295 294 294 294 293 293 293 293 293 293 293 293 292 292 292 292 292 292 292 292 292 292 292 292 292 292 292 292 292 292 292 292 293 293 293 293 294 295 295 296 296 297 297 298 298 298 298 298 298 298 298 298 298 298 298 298 297 297 297 297 297 298 298 298 298 298 298 298 298 298 298 298 298 298 298 297 297 296 295 294 293 293 293
293 293 293 293 293 293 293 293 293 293 292 292 292 291 291 291 291 291 291 291 291 291 291 291 291 291 291 291 291 291 291 291 291 291 292 292 293 292 293 293 293 294 295 295 296 296 297 297 297 298 298 298 298 298 298 298 298 298 297 297 297 297 297 297 297 297 297 297 297 297 298 298 297 297 298 298 298 297 297 297 296 296 294 293 293
292 291 292 292 292 292 292 292 292 291 291 291 291 291 291 290 290 291 290 290 290 290 290 290 290 290 290 290 290 290 290 290 290 290 291 291 292 292 292 292 292 293 293 294 294 295 295 296 296 297 297 297 298 298 298 298 298 297 297 296 296 296 296 296 296 296 296 296 297 297 297 297 297 297 297 298 297 297 297 296 296 295 293 292 291
290 289 290 290 290 290 290 290 290 290 290 290 290 290 290 290 290 290 290 289 290 290 290 289 290 290 290 290 290 290 290 290 290 290 290 290 291 291 291 292 292 292 293 293 293 294 294 295 295 296 296 296 296 297 297 297 297 297 296 296 296 295 295 295 295 296 296 296 296 296 296 297 297 297 297 297 297 297 296 295 295 294 293 291 291
287 287 288 288 289 289 289 289 289 289 289 289 289 289 289 289 289 289 289 289 289 289 289 289 289 289 289 289 289 289 289 289 290 290 290 290 290 290 291 291 291 292 292 292 293 293 294 294 294 294 295 295 295 295 295 296 296 296 296 295 295 295 295 295 295 295 295 295 295 295 295 296 296 296 296 296 296 296 296 295 295 294 293 291 291
286 286 287 287 288 288 288 289 289 289 289 289 289 289 289 288 288 288 288 288 288 288 288 288 289 289 289 289 289 289 289 289 289 289 290 290 290 290 290 291 291 291 291 292 292 292 293 293 293 294 294 294 294 294 294 294 295 295 295 294 294 294 294 294 294 294 294 294 294 294 294 294 295 295 295 295 295 295 295 295 294 294 293 292 292
285 286 286 287 287 288 288 288 288 288 288 288 288 288 288 288 288 288 288 288 288 288 288 288 288 288 288 288 289 289 289 289 289 289 289 289 289 290 290 290 290 291 291 291 291 291 292 292 292 293 293 293 293 293 293 294 294 294 294 294 293 294 294 294 294 294 294 293 293 293 293 293 293 293 293 294 294 294 294 294 294 293 292 292 292
285 286 286 286 287 287 287 287 287 287 287 287 287 288 287 287 287 287 287 287 287 287 287 287 287 288 288 288 288 289 289 289 289 289 289 289 289 289 289 290 290 290 290 290 290 291 291 291 291 292 292 292 292 292 292 293 293 293 293 293 293 293 293 293 293 293 293 293 293 293 293 293 293 292 292 292 292 293 293 293 293 293 292 292 291
285 286 285 286 286 286 286 286 287 287 287 287 287 287 287 286 286 286 286 286 286 286 287 287 287 287 288 288 288 288 288 288 288 289 288 288 288 288 288 289 289 289 290 290 290 290 290 290 290 291 291 291 291 291 291 291 292 292 292 292 292 292 292 292 292 292 292 292 292 292 292 292 292 292 292 292 292 292 292 292 292 292 292 291 291
285 285 285 286 286 286 286 286 286 286 286 286 286 287 286 286 286 286 285 285 285 286 286 286 286 287 287 287 287 288 288 288 288 288 287 287 287 287 288 288 288 289 289 289 289 289 289 289 289 289 289 289 290 290 290 290 290 290 290 290 291 291 291 291 291 291 291 291 292 292 292 292 292 292 292 292 292 292 291 291 291 291 291 291 291
285 285 284 285 285 285 285 285 285 285 286 286 286 286 285 284 284 284 284 283 284 285 285 285 285 285 286 286 286 286 286 286 286 286 286 286 287 287 287 288 288 288 288 288 288 288 288 288 288 288 288 288 288 289 289 289 289 289 289 290 290 290 290 290 291 291 291 291 291 291 291 291 292 292 292 292 292 291 291 291 291 291 290 290 290
283 283 283 283 283 284 285 285 285 285 285 285 284 283 282 282 282 281 282 283 283 284 284 284 284 284 284 285 285 285 285 285 285 285 285 286 286 286 286 286 286 286 286 286 286 287 287 287 287 287 287 288 288 288 288 289 289 289 289 289 289 289 290 290 290 290 290 290 290 291 291 291 291 291 291 291 291 291 291 290 290 290 289 289 289
281 281 282 283 283 283 284 284 284 284 284 283 282 281 280 280 279 280 281 282 282 282 282 282 283 283 283 283 283 283 283 283 284 284 284 285 285 285 285 285 285 285 285 286 286 286 287 287 287 287 287 287 288 288 288 288 288 288 288 289 289 289 289 289 289 289 290 290 290 290 290 290 290 291 291 291 291 290 290 289 289 288 288 288 288
280 280 281 282 282 282 283 283 283 283 282 281 280 280 279 278 278 279 280 280 280 280 281 281 281 281 281 282 282 282 282 282 283 283 284 284 284 284 284 284 285 285 285 285 286 286 286 286 287 287 287 287 287 288 288 288 288 289 289 289 289 289 289 289 289 289 289 289 289 289 289 289 290 290 290 290 289 289 289 288 288 287 287 286 286
280 280 281 281 281 281 280 280 280 279 279 279 279 279 279 279 278 278 278 278 279 279 279 280 280 280 280 280 280 281 281 281 282 282 283 283 283 283 284 284 284 284 284 285 285 285 286 286 286 287 287 287 288 288 288 289 289 289 289 289 289 289 289 289 289 289 288 288 288 288 288 289 289 289 289 289 288 288 288 287 287 286 285 285 284
279 279 279 278 278 278 278 278 278 279 280 280 280 280 279 278 278 278 278 278 277 278 278 279 279 279 279 279 280 280 281 281 281 282 282 282 283 283 283 283 283 283 284 284 284 285 286 286 287 287 287 288 288 288 289 289 289 289 289 289 289 289 289 288 288 288 288 288 288 288 288 288 288 288 288 287 287 287 287 286 286 285 284 283 283
277 276 277 277 277 278 279 278 279 279 278 278 278 279 279 279 278 278 278 277 277 277 277 278 278 278 279 279 279 280 280 281 281 281 281 281 281 281 282 282 282 283 283 284 285 285 286 286 287 287 287 288 288 288 289 289 289 289 289 289 289 288 288 288 287 287 287 287 287 287 287 287 287 287 286 286 286 286 285 285 285 284 283 283 282
277 277 278 278 278 278 277 277 276 276 275 274 274 276 278 280 279 279 278 278 277 276 276 276 277 278 278 279 279 279 280 280 280 280 280 280 280 281 281 282 282 283 283 284 285 285 286 286 287 287 287 288 288 288 289 289 289 289 288 288 288 287 287 287 287 287 287 287 287 287 287 287 287 286 286 285 285 284 284 284 283 282 282 282 281
278 277 277 277 276 275 274 273 272 272 272 272 272 272 274 276 277 278 278 277 277 277 276 276 276 277 277 278 278 278 278 279 279 279 279 279 280 280 281 281 282 283 284 284 285 285 286 286 286 287 287 288 288 288 288 288 288 288 287 287 287 287 287 286 286 286 286 286 286 286 286 286 286 286 285 285 284 283 282 282 282 281 282 282 280
277 276 275 275 274 273 271 270 270 270 271 271 271 271 271 271 273 274 275 275 274 274 275 275 275 276 276 277 277 277 277 278 278 278 279 279 279 280 281 281 282 283 284 284 285 285 286 286 286 287 287 288 288 288 287 287 287 287 287 287 286 286 286 286 285 285 285 285 285 285 285 285 285 285 284 284 283 282 281 281 281 281 281 280 279
276 275 274 273 272 270 269 269 269 269 270 270 270 270 270 270 270 271 272 273 272 273 274 274 275 275 275 275 276 276 276 277 277 277 277 278 279 280 281 282 283 283 284 284 285 285 286 286 286 287 287 287 287 287 286 286 286 286 286 286 286 285 285 285 285 285 285 285 285 285 285 285 284 284 283 282 282 281 281 280 280 281 280 280 278
275 273 272 271 270 269 269 269 268 268 268 269 269 269 269 270 270 271 271 272 272 273 273 274 274 274 274 274 275 275 275 275 275 275 276 278 279 280 281 282 283 283 283 283 284 284 285 285 286 286 286 286 286 286 286 286 286 286 285 285 285 285 284 284 284 284 284 284 284 284 284 283 283 283 282 282 281 280 280 280 280 280 280 279 278
273 271 269 269 270 270 269 268 268 268 268 268 268 269 269 270 270 271 271 272 272 272 273 272 272 272 272 273 273 273 273 273 273 274 276 277 278 278 279 279 280 280 280 281 281 282 282 283 284 284 285 285 285 285 285 285 285 285 284 284 284 284 284 284 284 284 284 284 283 283 283 282 282 282 282 281 281 280 280 280 280 280 279 278 277
273 271 270 270 271 270 269 268 268 268 268 268 269 269 270 270 271 271 271 271 271 271 271 271 271 271 271 271 271 271 271 271 271 273 274 274 274 274 274 275 275 275 276 276 276 277 278 279 280 281 281 282 282 283 283 283 283 284 284 284 284 284 284 284 284 283 283 283 283 282 282 282 281 281 281 281 280 280 280 280 280 280 279 278 277
272 271 271 272 271 270 268 268 268 268 268 269 269 269 270 270 270 270 270 270 270 270 270 270 270 270 270 270 270 269 269 270 270 271 271 271 271 271 271 271 271 271 272 272 272 273 275 276 277 277 277 278 279 279 280 281 282 282 282 283 283 283 283 283 283 283 283 282 282 282 281 281 281 281 280 280 280 280 280 280 280 279 279 278 277
271 271 272 272 270 268 267 267 268 268 268 269 269 269 269 269 269 269 269 269 269 269 269 269 269 269 269 269 269 269 269 269 269 269 268 268 268 268 268 268 268 268 268 269 269 270 271 273 273 273 274 274 275 276 277 278 279 280 281 281 282 282 282 283 283 283 282 282 282 281 281 281 280 280 280 280 280 280 279 280 280 279 279 278 278
271 271 271 270 268 267 267 267 267 268 268 268 268 268 268 268 268 268 268 268 268 268 269 268 268 268 268 268 268 268 268 268 267 267 267 267 267 267 267 267 266 266 267 267 267 268 269 270 270 270 271 272 273 274 274 275 276 277 278 279 280 281 281 281 281 281 281 281 281 281 281 280 280 280 280 280 280 279 279 279 279 279 278 278 277
271 270 269 268 267 266 266 267 267 267 267 267 267 267 267 267 268 268 268 268 268 268 268 268 267 267 267 267 267 267 267 267 266 266 266 266 266 266 266 266 266 266 266 266 267 268 269 269 269 269 269 270 271 271 272 273 274 275 276 277 278 279 279 279 279 279 280 280 280 280 280 280 280 280 280 280 279 279 279 279 279 278 278 277 277
270 269 267 267 266 266 267 267 267 267 267 266 266 267 267 267 267 267 267 267 267 267 267 267 267 267 267 266 266 266 266 266 265 265 265 265 265 265 266 266 267 267 266 266 267 268 268 269 269 269 269 269 269 269 269 270 271 273 274 274 275 276 277 277 277 277 278 278 279 279 279 279 280 280 279 279 279 279 279 278 278 278 277 277 276
268 268 268 267 267 267 266 266 266 266 266 266 266 266 266 266 266 266 266 266 266 266 266 266 266 266 266 266 266 265 265 265 265 265 264 264 264 265 265 266 266 267 267 267 267 267 268 268 269 269 269 269 269 269 269 269 269 270 272 272 273 273 274 274 275 275 276 277 277 278 278 278 279 279 279 279 278 278 278 278 277 277 276 276 275
268 268 268 267 267 266 266 266 266 266 266 266 266 266 266 266 266 266 266 266 266 265 265 266 266 265 265 265 265 265 265 265 264 264 264 264 264 264 265 265 266 266 266 266 267 267 267 268 269 269 270 270 270 270 269 269 269 270 270 271 271 272 272 273 273 274 274 275 276 277 277 277 278 278 278 278 278 277 277 277 276 276 275 275 274
267 267 267 267 266 266 266 265 265 265 265 265 265 265 265 265 265 265 265 265 265 265 265 265 265 265 265 265 264 264 264 264 264 264 264 264 264 264 264 265 265 266 265 265 266 266 267 267 268 268 269 269 270 270 270 270 270 270 270 270 270 271 271 272 273 273 274 274 275 275 276 276 277 277 277 276 277 276 276 276 276 275 275 274 273
266 266 266 266 266 266 265 265 265 265 265 264 264 264 264 264 264 264 264 264 264 264 264 264 264 264 264 264 264 264 264 263 263 263 263 263 263 263 264 264 264 265 265 265 265 265 266 266 266 267 267 268 269 269 270 270 270 270 270 270 270 270 271 272 273 274 274 274 274 275 275 276 276 276 276 276 276 276 275 275 275 275 274 274 273
266 265 265 265 265 265 265 265 265 264 264 264 264 264 264 264 264 264 264 264 264 264 264 264 264 263 263 263 263 263 263 263 263 263 263 263 263 263 263 264 264 265 265 265 265 265 265 265 266 266 266 267 267 268 269 269 269 269 270 270 269 270 271 271 272 273 274 274 274 274 275 275 275 275 275 275 275 275 275 274 274 274 274 273 273
265 265 265 264 264 264 264 264 263 263 263 263 263 263 263 263 263 263 263 263 263 263 263 263 263 262 262 262 262 262 262 262 262 262 262 263 263 263 263 263 264 264 264 265 265 265 265 265 265 266 266 266 266 267 267 268 268 268 268 269 269 269 270 271 272 273 273 274 274 275 275 275 275 275 275 275 275 274 274 274 274 273 273 273 272
264 264 264 263 263 263 263 263 262 263 263 262 262 263 262 262 262 262 262 262 262 262 262 262 262 262 262 262 262 262 261 261 261 261 262 262 262 262 263 263 263 263 264 264 264 265 265 265 265 265 265 266 266 266 266 266 266 266 267 267 268 269 270 270 271 272 273 273 274 274 274 275 275 275 274 274 274 274 274 273 273 273 273 273 272
264 263 263 263 263 262 262 262 262 262 262 262 262 262 262 262 262 262 262 262 262 262 262 262 262 262 261 261 261 261 261 261 261 261 261 261 261 262 262 263 263 263 263 263 264 264 264 264 265 265 265 265 265 266 266 266 266 266 266 266 267 268 269 270 270 271 272 272 273 273 274 274 274 275 274 274 274 274 274 273 273 273 273 272 272
263 263 263 263 262 262 261 262 262 262 262 262 262 262 262 262 262 262 262 262 262 262 262 262 262 261 261 261 261 261 261 261 261 261 261 261 261 261 261 262 262 262 263 263 263 263 263 264 264 264 264 264 265 265 265 265 265 265 265 266 266 267 268 268 269 269 270 270 271 272 272 273 274 274 274 274 274 274 273 273 273 272 272 272 272
Wind_Speed
10 10 11 11 9 9 9 9 9 10 9 8 9 10 10 10 10 11 12 13 14 14 14 13 13 13 13 13 13 13 14 14 13 13 13 14 16 18 21 22 23 25 26 27 28 28 29 30 31 32 31 29 30 31 31 31 30 31 30 29 30 28 29 29 20 23 37 35 31 33 32 30 32 32 32 34 35 35 37 39 40 41 42 44 45
9 9 9 9 9 8 8 8 8 8 7 7 8 9 10 10 11 11 11 12 12 12 11 11 12 12 12 12 13 13 14 14 14 13 13 14 15 18 21 21 22 23 24 25 26 26 27 29 31 32 30 29 29 29 29 27 26 28 29 28 30 30 30 32 27 23 32 37 32 31 32 31 32 34 34 35 36 36 37 39 39 40 42 44 45
7 8 8 7 7 7 7 6 6 5 5 6 7 8 8 9 9 10 9 9 9 9 9 9 10 11 11 12 12 12 13 13 14 14 14 15 16 19 21 22 22 23 24 25 25 25 25 26 28 29 27 27 29 28 28 28 27 28 31 30 32 33 32 33 33 28 30 37 35 30 30 31 32 34 34 35 36 35 37 39 39 40 42 43 45
6 6 6 6 6 5 5 4 4 4 4 4 5 6 6 6 6 6 6 6 6 7 8 8 9 9 10 11 12 12 12 14 14 15 15 16 17 19 21 22 23 23 24 25 25 25 25 26 28 28 28 28 31 32 31 31 32 31 33 33 33 34 34 34 35 34 31 35 38 34 30 32 34 34 33 33 34 34 36 38 38 39 42 43 45
5 6 6 6 5 4 3 3 2 2 2 2 2 2 2 2 2 2 3 4 5 6 8 9 10 10 11 12 13 13 14 15 16 16 17 17 18 20 21 22 23 23 24 25 25 26 27 29 30 29 30 31 33 34 34 33 34 33 33 34 33 34 34 33 35 37 34 34 39 38 33 32 35 35 32 31 33 33 33 35 37 38 40 41 43
7 8 8 7 7 6 5 5 4 4 3 3 2 3 3 4 5 6 6 6 7 8 8 9 10 11 12 13 14 15 16 17 17 18 18 18 18 19 20 21 23 24 24 25 25 26 27 29 30 30 30 33 34 34 33 32 33 33 34 34 34 34 34 33 33 35 35 36 39 40 36 33 34 36 34 31 32 33 32 32 34 35 36 38 41
11 11 11 11 10 10 9 8 8 8 7 7 7 8 8 8 9 9 9 8 9 9 9 10 11 11 12 13 14 15 16 17 18 19 18 18 17 18 19 20 22 23 23 24 25 26 28 29 30 31 31 33 34 34 33 33 33 33 34 35 35 34 34 34 33 32 34 35 36 37 36 35 34 34 35 32 31 33 31 28 30 32 32 35 40
14 14 13 13 14 13 12 12 12 11 11 11 11 11 10 11 10 10 10 10 10 10 10 11 11 12 12 13 14 15 16 18 19 19 19 18 18 18 19 20 21 23 25 26 27 27 29 30 30 31 32 33 34 34 33 33 33 34 34 33 33 34 34 34 32 32 32 32 34 35 33 34 34 32 31 28 25 27 27 26 30 32 29 32 37
16 16 16 17 17 15 15 15 14 13 13 13 13 12 12 12 12 11 11 11 11 11 11 12 13 13 14 14 15 16 17 18 19 19 19 20 20 20 21 22 23 25 27 29 30 29 30 30 31 32 32 33 33 34 34 34 34 36 36 34 33 33 33 33 31 30 29 28 31 32 28 30 33 29 26 27 25 27 28 27 31 34 30 32 37
18 18 19 19 18 17 16 16 15 15 15 14 14 14 13 13 13 13 13 12 12 13 13 14 14 15 16 16 17 17 18 19 19 20 20 21 22 23 24 25 26 27 28 30 31 32 31 32 33 34 33 33 34 34 35 35 36 38 40 38 36 34 33 32 31 29 27 26 28 29 24 27 33 30 27 31 30 28 29 27 29 32 28 26 32
20 20 20 19 18 17 17 17 16 16 16 15 15 15 14 14 13 13 13 13 14 14 15 16 17 18 18 18 19 20 21 22 21 21 21 22 24 25 25 27 28 28 29 30 32 33 34 34 35 35 34 34 35 35 35 35 36 38 40 40 40 40 38 36 33 30 27 26 29 29 25 27 35 33 30 32 30 28 30 30 29 28 23 18 20
20 20 20 19 18 18 17 17 17 16 16 15 15 15 14 14 14 14 14 14 15 16 17 18 19 20 21 21 22 23 24 25 24 24 24 24 25 26 27 28 29 30 30 31 33 34 35 36 36 36 35 35 35 35 35 36 37 38 39 40 40 41 42 42 40 37 31 28 29 31 31 30 33 35 32 29 29 28 29 29 29 27 24 21 20
20 20 20 19 18 18 17 17 16 16 16 15 15 15 15 15 15 15 16 17 18 19 20 21 21 22 22 22 24 25 26 27 27 27 27 26 26 27 29 30 30 31 31 32 34 35 36 37 37 37 36 34 34 35 35 37 38 38 39 39 39 40 41 43 44 44 41 37 33 36 40 36 32 36 35 28 27 29 27 26 28 28 27 27 29
20 19 18 18 18 17 16 16 16 16 16 15 15 16 16 17 17 17 18 19 20 21 21 22 22 22 23 24 25 26 27 28 29 29 28 28 27 27 30 32 32 33 33 33 34 36 37 37 37 39 38 36 34 34 34 36 37 37 37 37 38 39 40 40 42 42 43 44 42 44 49 45 38 39 41 34 30 31 28 27 28 30 32 33 38
19 18 17 17 17 16 16 16 16 16 15 15 16 16 17 18 18 19 19 20 21 22 22 23 24 24 25 26 27 29 30 30 31 31 30 30 29 29 30 32 33 34 34 35 35 37 38 36 36 38 39 38 36 34 34 35 35 35 36 37 38 39 39 39 38 37 39 43 46 48 52 51 46 45 45 41 38 37 35 34 34 34 34 33 36
18 17 17 16 16 16 16 15 15 15 15 16 17 18 18 19 19 20 21 22 23 23 24 25 26 27 28 29 30 33 34 32 31 32 32 31 30 31 31 32 33 34 35 36 36 37 37 35 35 36 37 38 37 35 34 34 34 36 37 39 39 40 41 40 36 35 39 42 45 47 50 51 50 49 48 46 44 42 38 35 36 33 27 24 27
17 16 15 15 15 15 15 15 15 15 16 17 18 19 20 20 20 21 22 23 24 25 26 27 27 28 30 30 31 33 36 35 32 32 33 31 29 31 32 31 33 34 35 37 38 37 37 35 34 35 37 39 38 35 34 33 34 37 38 39 40 41 43 41 36 36 41 42 44 47 49 51 51 51 51 50 48 45 37 31 31 30 22 14 16
15 14 14 14 14 14 14 15 15 16 17 18 19 19 20 20 21 21 23 24 25 26 27 28 29 29 29 31 31 32 36 37 33 32 33 31 28 30 32 32 33 34 35 38 39 37 36 35 34 34 37 39 40 38 36 34 35 37 37 37 38 40 42 39 34 36 39 39 42 45 47 49 50 50 51 50 49 47 40 34 33 30 22 14 14
14 13 13 13 13 13 14 15 16 16 17 17 18 19 21 21 21 23 24 25 27 27 27 29 31 31 30 31 32 31 34 37 36 32 31 32 29 29 30 31 32 34 35 38 39 38 37 36 35 34 35 37 38 37 35 34 35 37 37 36 35 38 40 37 33 35 36 35 37 39 40 43 45 46 47 47 47 46 44 42 40 33 25 22 20
12 13 13 13 13 14 14 15 16 16 17 17 18 20 21 22 23 24 26 26 26 27 27 28 31 33 32 31 32 32 32 36 37 33 31 31 30 28 28 29 31 34 35 37 39 39 38 37 36 35 34 34 35 35 33 33 33 35 36 35 34 37 39 37 35 35 35 35 36 37 37 38 39 39 41 42 42 43 43 44 43 39 32 27 24
11 12 13 13 13 13 14 14 16 16 17 18 19 21 22 23 24 25 26 26 26 28 29 29 31 34 34 33 33 33 33 34 35 35 32 30 29 27 27 29 31 32 34 36 37 37 37 37 37 37 35 34 34 34 33 33 32 33 34 35 36 37 38 38 38 38 36 36 36 36 37 37 36 35 36 37 38 40 41 42 43 42 38 32 27
11 12 12 12 12 14 14 15 17 18 19 20 21 23 23 23 24 25 25 26 27 28 29 29 31 34 37 37 36 35 34 34 34 34 33 32 30 27 27 29 30 30 31 34 35 35 35 36 38 39 38 37 37 36 36 35 34 34 35 36 37 39 39 39 40 39 37 35 34 34 34 33 32 32 32 34 35 37 38 39 40 40 39 38 34
11 12 12 12 14 15 16 17 18 20 21 21 22 23 24 24 26 26 25 25 27 28 28 28 29 31 35 38 39 37 35 34 33 33 34 34 32 30 28 27 26 25 27 31 33 35 36 37 39 40 40 41 41 40 40 39 39 39 39 39 40 40 40 40 39 38 36 35 33 32 32 32 31 30 31 33 34 35 35 35 37 37 37 38 38
11 12 13 14 15 16 17 18 19 19 20 21 22 23 24 24 25 24 23 24 25 25 25 25 26 28 31 34 37 37 35 35 35 34 33 33 32 29 27 25 23 23 26 30 33 35 37 39 41 43 44 45 45 44 43 43 42 41 40 40 40 40 40 39 38 36 34 32 30 29 29 31 32 32 32 34 33 33 33 33 34 35 35 35 35
12 13 14 15 16 16 17 18 19 20 20 22 23 23 23 24 24 23 21 20 19 19 20 21 23 25 27 30 34 37 38 38 36 34 33 31 29 27 26 27 29 30 31 33 35 37 38 40 42 44 44 44 43 43 41 40 39 38 38 38 38 37 36 35 34 31 28 27 27 27 29 32 34 34 34 34 32 30 29 29 29 30 30 31 32
12 13 14 15 16 17 18 19 20 21 22 23 23 22 22 23 23 21 17 16 17 17 18 19 21 22 24 28 32 36 39 39 36 34 33 30 27 27 30 33 34 35 34 34 35 35 37 39 41 42 43 43 43 42 42 42 41 40 41 41 39 36 34 32 30 27 25 25 26 28 30 33 33 33 31 29 29 28 26 25 24 25 27 27 27
12 13 14 15 16 18 18 20 21 22 23 23 23 23 23 22 22 20 18 19 20 18 17 18 19 20 23 27 29 31 35 36 35 33 32 30 30 32 34 34 35 34 34 33 33 34 37 40 42 43 43 43 43 42 41 40 39 38 37 36 34 32 30 29 28 26 26 26 28 30 32 32 31 30 28 25 25 25 24 23 22 23 23 24 21
12 13 14 15 17 18 18 20 22 22 23 23 24 24 24 23 23 21 20 20 21 19 19 19 19 20 23 26 27 29 31 32 31 31 33 36 38 38 36 35 35 35 35 35 37 39 40 41 40 39 38 37 36 35 34 32 32 32 31 29 28 26 25 25 25 27 28 28 29 29 30 29 27 26 25 23 23 23 22 22 22 21 20 19 16
12 13 14 15 17 18 18 19 21 22 23 24 25 25 24 23 23 23 21 19 19 19 20 20 21 23 24 25 26 28 30 32 34 37 39 41 41 40 39 39 39 39 39 40 42 42 40 37 34 33 32 31 30 30 29 28 27 27 27 26 25 24 24 25 26 27 27 26 25 25 25 24 24 23 21 20 20 20 20 20 21 19 18 17 14
12 13 14 15 16 17 18 19 20 21 23 24 25 27 26 24 24 24 24 24 22 20 19 21 24 25 26 27 27 28 31 35 39 41 42 43 43 42 41 41 40 41 41 42 42 39 35 31 30 30 29 28 27 27 26 25 24 24 25 25 24 24 25 27 26 26 25 23 23 23 23 23 23 21 18 18 18 18 18 19 18 17 17 16 12
12 12 14 14 15 15 17 18 18 19 19 20 23 26 29 30 28 26 25 27 27 25 21 20 21 23 24 27 30 31 32 35 37 40 42 43 44 44 44 43 42 40 40 40 39 35 31 29 28 28 28 27 25 25 24 23 23 23 23 23 24 25 25 24 22 21 21 21 21 22 22 22 21 19 17 17 17 16 16 16 15 15 17 15 12
10 11 11 12 12 13 14 15 16 16 16 18 19 20 24 28 30 31 29 28 28 28 24 20 20 20 21 24 28 32 34 36 38 39 40 41 43 44 45 45 44 42 40 37 33 31 30 28 26 26 25 25 23 23 22 22 23 23 23 23 24 23 21 19 19 20 20 21 21 21 21 21 20 19 18 16 15 14 14 14 14 14 14 12 11
8 8 9 10 11 11 11 12 12 13 14 16 17 16 16 18 23 29 32 31 27 24 21 20 19 20 22 24 25 28 32 36 38 39 39 40 41 42 44 45 44 41 36 31 27 26 26 26 25 24 23 23 22 22 23 25 26 25 24 24 22 20 19 19 20 21 21 21 21 21 21 20 19 17 15 13 12 12 12 12 12 12 11 9 9
7 7 8 9 9 9 9 10 11 11 11 12 13 12 12 13 16 20 25 28 27 23 19 17 18 21 25 28 27 26 28 31 35 38 40 40 39 39 39 40 37 34 30 26 23 24 25 25 24 24 23 23 23 24 24 25 24 23 22 21 19 19 19 19 19 19 19 20 20 20 19 18 15 13 11 10 10 10 10 11 11 11 10 9 10
6 6 6 7 8 8 8 9 10 10 10 10 10 10 11 13 14 15 17 20 23 24 23 21 21 23 26 28 28 28 28 29 32 36 37 36 36 35 33 30 28 27 27 25 23 23 24 24 25 25 24 24 24 24 23 22 21 19 19 18 18 18 18 18 17 18 19 19 18 17 16 14 12 11 10 9 9 9 9 10 10 10 10 10 12
6 6 5 6 7 8 8 8 8 8 8 9 9 10 10 11 11 13 15 16 18 21 24 25 27 27 24 23 25 29 31 31 31 31 30 30 31 30 27 25 25 25 25 25 24 24 24 24 24 25 25 23 22 21 21 19 18 18 18 18 17 17 17 17 17 18 18 17 16 15 13 12 11 10 9 8 8 8 8 9 8 9 10 12 13
6 6 5 5 7 8 7 7 7 7 8 8 8 8 9 10 11 12 14 15 17 19 21 23 26 27 25 24 25 30 35 36 32 26 24 27 29 28 24 23 23 23 23 24 25 24 24 24 24 24 25 24 22 22 21 19 19 18 18 17 17 17 17 18 18 17 16 15 14 13 12 10 9 8 8 7 6 6 7 8 8 8 11 14 14
6 7 6 6 6 7 6 6 6 6 6 7 7 8 9 10 11 12 13 14 16 17 18 20 21 22 25 27 28 30 35 39 35 28 25 27 29 29 27 25 24 23 23 24 26 26 24 24 25 25 25 24 24 23 22 21 20 19 18 18 18 17 18 17 17 16 15 13 13 12 11 9 8 7 6 5 5 5 7 9 8 9 11 13 13
6 6 5 6 5 4 4 4 5 5 5 6 7 8 9 10 10 11 12 13 14 15 16 17 18 19 22 26 28 30 32 32 30 28 26 25 26 29 30 29 27 26 25 27 30 29 26 25 26 28 28 28 27 26 24 22 21 20 19 19 18 17 17 16 15 14 13 12 12 12 10 8 7 6 4 4 5 5 7 8 8 9 10 11 12
5 5 4 5 4 2 2 2 4 4 5 6 7 8 8 9 10 10 11 12 13 14 14 15 16 18 21 23 26 28 28 25 24 25 25 24 26 30 32 31 30 29 28 30 32 31 28 26 27 30 31 31 30 29 27 25 24 22 20 19 18 17 17 16 15 15 13 12 11 10 9 7 6 4 3 2 3 5 6 7 7 9 10 11 13
5 4 3 3 2 1 1 1 3 4 4 5 6 7 7 8 9 10 11 11 12 13 13 14 15 18 20 20 22 24 22 21 22 25 24 25 28 32 33 32 32 31 31 31 31 30 29 28 28 29 30 31 30 29 29 28 27 25 22 20 19 18 17 17 17 16 15 13 11 9 8 6 4 3 2 1 2 4 7 7 8 9 11 13 15
4 3 2 1 1 1 1 1 2 4 4 5 5 6 7 8 9 9 9 10 11 12 13 14 16 18 20 20 21 22 20 19 21 23 23 24 27 31 32 32 31 30 30 31 30 30 29 29 28 29 29 30 30 30 29 29 29 28 26 23 21 20 19 19 19 18 17 15 12 10 8 5 3 2 1 2 4 5 7 8 9 10 12 13 14
3 3 2 1 1 1 1 2 3 4 5 5 6 6 6 8 9 9 9 11 11 11 12 14 16 18 19 20 21 21 20 20 21 22 22 23 25 28 31 32 31 30 29 29 29 29 29 29 29 28 28 28 28 29 29 29 29 29 29 27 24 23 22 21 22 22 20 17 14 11 8 5 3 2 1 3 5 7 7 8 10 11 13 13 14
2 2 1 1 1 1 2 3 4 5 6 6 6 7 8 8 8 9 10 11 11 11 12 15 16 17 18 20 21 20 20 20 21 22 23 24 25 26 28 29 29 30 30 29 29 29 28 28 28 28 27 27 26 26 27 28 28 29 30 29 28 27 25 23 22 22 20 18 15 11 8 6 4 3 2 3 5 7 8 9 11 12 13 14 14
2 1 0 1 2 3 3 4 5 6 6 7 7 8 8 8 9 10 11 11 11 12 13 14 15 16 18 19 20 20 20 20 21 21 22 23 24 25 26 27 28 29 29 28 28 28 28 28 28 28 27 27 26 25 26 26 26 27 28 29 29 29 27 24 21 19 18 17 15 12 9 7 5 3 3 3 5 6 8 9 11 12 12 13 13
2 1 2 3 4 4 5 6 7 7 7 7 8 9 9 9 9 10 11 11 12 13 14 14 15 16 18 19 19 20 20 21 21 21 21 22 23 25 26 27 27 28 27 26 26 27 27 27 27 27 27 27 27 26 25 25 25 26 26 27 28 28 27 24 22 19 17 16 14 12 10 8 6 5 4 3 4 5 7 8 9 10 11 11 12
4 3 4 5 6 7 7 8 9 9 9 8 9 10 10 10 11 11 12 13 13 14 14 15 16 17 18 19 19 20 20 21 21 21 22 22 23 24 25 26 27 27 27 26 25 26 26 26 25 25 25 25 25 25 25 25 25 25 26 26 27 27 26 24 22 20 19 17 14 12 10 8 6 6 5 3 3 5 6 8 8 9 10 11 12
6 6 7 7 8 9 10 10 11 11 10 10 10 11 12 12 12 12 13 13 14 14 15 16 17 17 18 19 19 20 20 21 22 22 22 23 23 24 25 26 27 27 27 26 26 25 25 25 25 24 24 24 24 24 24 24 24 24 25 25 26 25 24 23 22 21 19 18 15 12 10 8 6 5 5 4 4 5 6 8 8 9 10 11 12
8 9 9 9 10 11 12 12 13 12 11 11 12 13 13 13 13 13 13 13 14 14 15 16 17 18 19 20 20 21 21 22 22 23 23 23 24 25 26 27 27 27 27 27 26 25 25 24 24 24 24 24 23 23 23 23 23 23 24 24 24 23 21 21 20 19 18 17 16 14 11 8 6 5 4 4 4 5 6 7 8 9 11 11 12
10 10 10 11 11 12 13 13 13 13 12 11 12 13 13 13 13 14 14 15 15 16 17 17 18 19 19 20 21 21 22 22 23 23 24 24 25 26 27 27 27 27 27 27 26 26 25 24 24 24 24 23 23 22 22 22 22 22 22 23 23 22 21 20 19 18 17 16 16 15 13 10 7 5 3 3 3 4 5 6 7 9 10 11 13
11 11 11 11 11 12 13 13 12 12 11 11 12 12 13 14 14 15 16 16 17 18 19 19 20 21 21 21 22 22 23 23 24 24 24 25 25 26 27 28 28 28 28 28 27 27 26 25 24 24 24 23 23 22 22 21 21 21 21 21 21 21 21 20 19 18 17 16 14 13 12 11 9 6 4 2 1 2 3 5 7 9 10 11 12
Wind_Direction
180 185 193 197 198 199 201 205 211 215 219 223 230 238 246 252 254 257 261 263 263 262 262 261 261 262 264 264 265 266 266 266 265 265 267 269 271 271 271 270 269 268 267 266 263 261 260 260 262 262 261 260 260 260 259 257 254 252 249 249 250 249 248 247 249 269 274 271 269 271 273 273 272 269 266 268 267 265 267 268 270 270 268 267 266
187 191 196 199 201 205 211 218 224 229 236 243 249 252 256 259 261 262 264 264 263 263 266 268 269 272 273 272 272 273 274 275 274 274 273 272 271 270 269 268 268 268 268 267 265 263 261 260 261 263 261 260 260 259 258 254 249 250 249 248 252 250 245 244 247 260 273 274 270 271 274 271 268 268 267 267 266 265 264 264 267 268 268 267 266
186 190 189 191 194 200 209 216 222 228 237 247 254 257 259 262 264 264 264 264 268 276 284 287 286 286 286 287 287 285 285 285 283 282 280 276 273 270 269 267 268 269 268 268 268 266 263 261 261 262 261 260 259 258 257 255 253 255 256 253 253 253 247 244 247 252 265 274 274 271 273 272 269 271 271 269 268 266 265 264 264 265 265 265 265
180 181 178 179 182 186 192 200 210 219 228 243 255 257 259 262 264 269 272 278 293 306 313 316 315 309 304 304 303 300 300 299 296 293 286 281 276 273 273 271 270 271 271 271 271 270 268 266 266 267 267 265 264 263 261 261 261 261 260 258 254 253 250 245 246 250 259 271 275 272 272 273 273 273 273 273 271 268 266 266 264 264 264 264 264
153 152 151 152 152 152 158 165 175 184 193 213 240 246 256 276 294 324 334 338 345 345 341 338 334 331 327 323 320 316 315 311 307 302 296 288 281 275 275 274 273 272 272 272 272 271 270 270 270 271 270 268 267 266 265 264 264 262 260 259 256 254 253 248 246 249 253 262 271 274 273 272 274 275 273 271 272 270 268 266 265 264 264 263 262
127 127 125 122 116 112 108 104 104 103 105 103 88 72 55 40 32 28 21 14 8 1 354 346 340 338 336 333 331 328 326 322 316 310 304 296 287 282 279 277 277 277 276 275 274 272 271 271 271 271 269 268 267 267 267 266 264 262 260 259 259 257 255 253 249 249 250 255 265 272 273 272 272 274 273 269 268 268 268 269 268 264 262 261 261
110 109 108 105 97 94 93 92 93 90 85 81 72 62 54 45 39 32 25 20 12 3 357 350 346 345 341 338 337 334 332 328 321 316 310 301 293 289 287 284 283 282 281 280 280 277 275 273 273 272 269 267 268 268 268 268 266 265 263 261 261 259 257 256 254 251 252 255 261 266 271 272 271 271 273 272 267 263 262 265 269 266 261 261 261
106 103 100 97 92 90 90 87 85 81 76 71 63 56 50 41 36 31 24 19 12 5 360 354 350 349 346 343 341 337 334 330 324 318 313 306 300 295 292 291 289 288 288 287 286 284 282 280 278 276 273 271 270 269 268 268 267 267 266 264 262 260 258 257 256 253 253 256 260 264 268 272 271 269 271 268 260 257 255 254 261 265 263 262 262
103 100 96 93 90 88 86 82 78 73 68 63 56 50 45 39 33 28 23 18 13 8 1 356 353 351 349 346 344 340 336 332 328 322 316 310 305 301 297 295 294 292 292 292 292 290 288 286 284 282 280 277 275 273 271 269 266 266 266 264 262 260 258 257 255 254 254 255 260 264 266 269 269 268 267 261 254 258 258 251 253 260 262 262 264
100 97 93 90 88 86 82 77 72 67 63 58 54 49 44 39 34 28 25 22 17 12 7 3 358 354 353 349 345 342 338 335 334 328 322 316 311 307 303 301 300 297 295 295 295 294 293 290 289 288 286 283 281 278 275 272 268 266 265 263 261 259 258 258 256 253 253 255 259 262 263 264 266 265 263 263 261 260 257 249 249 258 260 260 264
96 93 89 87 86 83 79 74 70 65 61 57 52 48 43 38 33 27 23 18 13 8 3 360 356 351 349 345 342 339 335 335 334 330 327 323 316 310 306 303 302 299 296 295 294 295 295 293 292 291 288 286 284 282 280 277 273 269 267 265 262 259 258 258 258 256 254 255 259 261 259 261 266 267 264 266 265 260 255 249 247 252 251 250 261
93 90 87 85 83 79 76 72 66 61 57 52 46 41 35 31 26 20 15 10 5 1 358 355 352 348 344 340 337 334 333 334 333 329 327 325 320 314 307 303 300 296 294 293 292 292 292 292 291 289 287 286 286 284 281 280 278 274 271 268 265 262 259 257 258 258 256 256 260 262 260 261 267 268 266 266 266 262 257 251 245 245 245 245 251
91 88 84 82 77 74 70 65 60 55 50 45 39 35 30 25 20 15 11 6 2 360 357 353 350 347 341 336 333 331 334 336 334 330 327 325 322 316 310 305 300 295 293 291 290 290 290 289 289 287 287 287 286 283 281 280 279 277 273 271 268 265 262 259 258 258 258 258 260 263 264 263 265 268 269 269 267 264 258 251 246 244 243 244 250
88 83 80 76 71 68 65 60 55 50 45 41 35 30 26 21 15 10 7 2 359 356 352 348 345 342 337 333 330 329 331 334 333 330 328 327 323 317 310 307 302 297 295 293 290 289 289 288 286 287 287 286 284 282 281 280 279 277 274 271 268 267 264 261 259 257 257 256 257 260 264 265 265 268 271 271 268 263 259 256 253 249 246 249 255
83 77 73 70 66 63 59 54 50 45 39 34 29 24 20 15 9 4 1 357 353 350 346 342 339 338 336 333 329 327 328 331 331 329 327 326 324 318 312 308 304 299 297 294 291 289 289 287 285 286 286 285 283 281 279 279 279 276 274 272 270 269 266 263 260 258 257 256 256 258 263 266 267 268 271 271 269 266 265 263 262 260 258 258 260
76 71 66 63 59 56 51 47 42 36 30 26 22 17 13 9 5 360 355 352 349 346 342 340 337 335 335 333 329 326 326 328 328 327 326 325 323 318 313 308 303 299 296 295 293 291 289 287 285 285 285 285 284 283 280 279 278 276 275 274 273 272 270 268 265 262 262 262 260 261 264 267 268 269 270 271 270 270 270 267 265 263 259 256 258
68 63 59 56 52 48 44 40 35 30 24 20 17 13 8 5 2 357 351 348 346 343 340 338 335 333 331 330 327 323 323 325 325 326 326 324 321 317 312 306 301 298 296 296 294 292 289 288 286 285 284 285 285 285 283 280 277 276 276 275 275 274 273 273 271 268 267 266 265 265 266 267 268 269 269 270 269 270 269 265 262 260 251 242 253
61 57 53 52 49 44 40 35 30 25 20 16 13 9 5 1 358 354 350 345 342 340 338 335 334 331 328 326 324 320 320 323 324 324 324 324 320 315 310 305 300 298 297 297 296 294 291 290 288 284 283 285 287 286 284 280 277 275 275 275 275 274 275 276 276 273 271 269 268 267 266 266 267 267 268 268 268 268 265 262 263 262 252 238 248
54 54 51 49 46 41 37 32 26 21 17 13 10 5 1 359 356 352 349 345 341 339 337 332 330 329 326 325 324 321 320 323 324 323 323 322 318 312 307 302 297 297 298 298 298 297 295 294 292 288 286 288 290 289 286 282 277 274 274 273 272 273 276 279 278 276 275 273 271 269 267 266 266 265 266 266 265 265 262 262 263 262 255 249 251
55 56 53 49 44 38 34 29 24 19 13 9 7 4 0 357 354 351 348 345 341 336 333 330 327 326 326 326 325 322 321 323 324 324 323 322 319 314 306 299 294 296 297 297 297 297 297 297 296 294 293 293 293 292 291 287 282 278 275 272 269 273 278 281 280 278 277 276 275 274 272 271 269 267 266 265 263 262 260 259 259 257 255 254 252
59 57 52 47 41 37 33 27 22 17 12 8 4 2 0 356 352 350 347 345 341 336 334 333 329 327 328 327 326 325 325 324 324 326 326 324 323 318 308 299 295 295 295 294 294 295 297 299 298 298 298 297 295 295 293 291 288 284 279 275 274 277 281 282 281 280 279 277 277 276 274 273 271 269 266 263 261 259 256 255 255 254 253 251 251
58 53 47 41 36 32 27 22 18 13 9 7 2 359 359 356 352 350 347 343 340 337 337 336 332 330 330 328 327 327 328 327 326 326 326 325 324 321 312 305 301 297 292 291 293 294 296 298 298 298 299 299 298 296 294 292 290 287 284 281 280 281 281 280 280 280 278 277 275 273 272 271 269 267 264 261 259 257 254 252 252 252 252 250 250
53 47 39 33 29 26 21 17 15 11 8 5 1 359 358 355 353 353 350 344 341 338 337 337 334 330 329 328 327 327 328 328 326 325 324 324 324 323 319 314 309 303 295 292 294 296 297 298 297 297 298 298 297 296 294 292 290 288 286 285 282 280 279 277 276 275 274 273 271 269 269 269 268 265 263 260 258 256 254 252 252 251 251 252 252
48 40 33 28 24 21 18 15 13 10 6 4 1 0 358 356 355 353 349 346 342 337 334 335 334 330 327 326 326 327 327 327 325 324 324 324 324 325 323 320 317 312 305 299 297 296 296 296 296 297 298 297 296 296 294 291 288 287 287 285 282 279 276 273 272 271 269 268 268 267 267 268 267 265 264 263 262 261 258 255 254 253 252 253 254
42 35 30 26 21 17 15 13 11 9 6 5 3 1 357 356 355 351 346 343 340 332 329 331 331 328 325 323 324 324 324 324 323 324 325 325 324 325 322 318 315 311 306 300 297 296 295 296 297 297 297 296 296 296 294 291 288 287 286 285 282 278 274 271 270 269 267 266 266 266 267 268 268 268 270 269 268 265 260 255 253 252 252 253 253
39 33 27 23 19 16 13 11 9 8 6 6 5 1 358 356 353 349 342 338 336 333 331 331 331 329 325 323 322 321 322 322 322 323 325 324 323 322 319 315 312 310 306 302 300 298 297 296 296 295 295 294 293 292 290 289 288 287 286 283 280 275 272 270 268 266 265 265 267 268 269 271 273 274 275 273 268 263 257 252 250 249 248 248 246
38 31 27 23 18 16 13 10 8 7 6 4 2 360 358 354 350 346 343 341 339 337 334 331 330 327 322 320 320 319 318 319 320 322 324 322 320 319 316 314 312 311 308 305 303 300 297 295 295 294 293 292 290 288 286 285 285 284 284 281 278 274 270 267 264 263 265 267 270 271 273 275 277 277 276 273 267 261 255 250 246 245 242 239 236
36 29 27 23 19 17 14 11 8 6 3 1 358 356 354 352 348 345 344 343 339 333 329 326 325 323 319 317 317 315 313 313 316 319 319 317 316 316 315 313 313 311 309 307 305 302 299 296 295 294 292 290 289 287 285 282 280 280 280 278 276 275 273 270 268 269 270 272 273 274 276 278 278 278 277 273 266 260 255 248 243 239 233 227 221
35 31 27 24 20 17 15 11 8 4 1 357 355 353 351 350 347 343 342 343 339 330 321 316 316 317 314 310 311 311 309 309 312 314 314 313 313 313 312 311 311 309 307 307 305 302 299 296 294 292 290 288 286 285 284 283 281 280 279 277 275 276 278 277 276 275 274 274 274 275 277 279 280 281 278 271 264 260 254 245 237 230 222 215 210
37 31 26 22 18 15 13 10 6 4 1 357 352 349 348 348 346 343 341 341 338 333 323 314 312 312 308 305 306 305 303 305 309 313 314 314 314 313 311 310 309 308 308 308 305 300 296 294 292 291 289 287 285 284 285 285 284 283 283 279 276 279 283 283 279 277 275 275 275 276 278 280 282 281 274 264 261 257 248 237 228 218 210 205 196
33 27 23 19 16 13 11 8 5 2 359 356 352 348 345 343 342 342 340 338 337 338 336 325 318 314 308 307 308 307 304 306 310 313 314 315 315 314 313 312 311 310 310 309 305 299 296 294 292 291 289 288 286 286 287 288 289 289 287 284 283 285 286 284 280 279 277 276 277 278 279 281 281 277 267 260 256 248 236 227 218 208 206 204 189
31 26 22 19 16 13 10 7 5 1 356 354 352 348 343 339 337 336 337 339 339 340 341 333 323 318 315 312 312 311 311 312 314 314 315 316 316 315 314 313 312 313 312 309 302 296 295 294 292 291 290 288 288 290 293 296 297 294 291 289 290 289 287 285 286 285 283 282 283 283 284 284 281 273 266 259 250 238 225 216 208 202 202 198 182
36 32 25 19 16 12 8 5 2 359 354 351 350 347 342 337 331 328 331 335 338 339 339 335 327 322 320 317 314 314 314 316 318 319 319 318 317 316 314 313 313 314 315 311 303 297 297 297 295 295 294 293 293 296 298 298 297 295 293 292 292 292 293 295 294 290 287 288 288 288 288 287 279 269 263 254 241 230 220 210 203 198 189 175 161
42 39 31 25 20 13 7 3 359 355 352 349 346 340 334 329 323 319 322 328 331 331 332 332 329 326 324 322 321 321 323 323 323 321 320 319 319 318 317 315 314 317 320 317 310 304 302 301 301 302 302 301 300 299 299 298 298 298 298 299 300 300 302 302 299 295 294 295 294 292 291 287 277 265 256 244 232 226 217 205 197 189 179 165 152
50 46 35 27 24 18 10 3 359 354 349 344 338 329 323 320 316 313 313 318 321 323 325 328 330 331 329 326 326 328 330 329 326 323 323 324 325 327 327 323 322 325 326 324 320 316 312 311 310 309 307 305 303 303 303 304 306 307 307 308 308 308 308 308 304 301 301 300 298 295 293 289 279 266 252 236 225 218 210 203 197 186 173 160 149
61 59 44 27 24 23 14 4 360 352 342 334 326 317 313 310 308 310 313 314 316 320 323 326 330 332 331 331 330 330 333 334 332 329 330 333 336 341 342 338 334 333 333 332 332 330 326 324 322 321 321 319 317 316 316 315 316 314 312 311 311 311 312 312 310 308 306 305 303 300 296 291 283 269 253 237 227 219 209 201 193 178 166 157 150
71 69 57 34 28 27 18 7 0 350 334 324 314 306 305 307 308 312 317 319 322 323 322 325 329 332 333 337 337 336 338 342 343 341 342 346 351 355 353 346 341 338 336 337 339 337 334 333 334 333 333 333 331 330 327 325 323 319 317 317 317 316 316 314 313 312 310 306 307 307 302 296 288 273 254 235 221 211 201 193 182 167 163 160 153
73 67 57 42 37 31 16 1 351 341 324 311 305 304 306 312 317 320 321 321 322 321 320 323 329 333 334 337 338 338 342 347 351 352 352 354 358 360 356 351 349 344 338 339 343 342 338 337 339 341 341 340 340 339 335 332 330 328 326 326 323 321 321 320 317 317 315 312 313 313 310 305 299 283 258 232 212 196 188 184 173 156 154 157 155
77 69 61 53 47 33 5 340 325 317 308 304 312 318 319 321 324 323 322 321 319 319 322 326 329 332 334 337 338 340 343 346 348 348 348 351 357 1 0 357 353 347 344 347 352 351 344 337 340 348 352 352 352 351 347 342 338 334 333 333 331 328 329 328 326 324 323 320 320 320 317 312 307 293 264 235 214 193 180 177 169 155 150 152 153
92 82 73 66 59 37 346 316 304 307 313 319 325 325 321 321 321 317 317 318 316 319 325 326 326 331 335 337 340 342 341 339 339 340 341 345 354 2 5 3 358 353 352 354 357 358 353 346 345 352 358 359 359 359 358 355 352 347 343 340 338 336 336 336 335 334 332 329 330 330 327 323 316 305 284 247 210 182 168 162 156 149 145 144 144
103 98 93 77 66 56 18 324 309 320 330 329 324 315 308 311 312 310 313 317 317 318 322 320 323 331 335 336 339 343 339 332 332 335 338 343 352 360 4 4 2 1 1 1 2 3 2 1 359 1 3 4 4 3 3 3 3 1 356 349 344 345 346 346 346 343 340 337 335 335 335 334 333 336 355 82 146 157 157 151 144 140 139 139 140
110 117 128 119 98 59 27 351 323 325 326 315 304 298 298 303 306 307 310 315 317 319 320 319 324 333 338 339 344 348 348 341 336 335 335 340 349 356 360 1 1 1 1 4 5 6 6 7 8 9 10 11 10 9 10 10 9 9 7 2 355 353 353 354 354 353 349 345 339 336 336 337 334 340 8 114 133 136 140 140 137 137 136 136 138
121 122 119 105 85 5 333 317 305 304 301 297 299 305 307 307 308 309 310 314 317 319 320 323 326 331 336 342 348 351 351 347 342 339 338 340 346 353 357 359 359 359 359 0 3 4 5 5 7 9 12 14 14 16 17 16 16 15 15 12 8 3 0 359 358 356 353 349 345 342 342 343 343 4 59 125 135 132 133 137 139 139 137 136 138
129 108 90 62 354 301 283 283 289 293 296 302 313 322 323 317 313 313 313 316 317 317 319 325 328 328 331 338 344 346 346 345 343 341 341 342 345 350 354 355 357 358 358 357 358 0 1 1 1 3 6 9 12 15 18 19 20 21 20 18 15 11 6 2 359 356 353 350 348 348 352 357 3 28 75 118 136 135 136 139 141 140 139 139 140
153 107 25 287 286 285 282 285 291 296 304 312 317 321 323 319 317 318 318 317 316 315 316 321 326 327 328 332 336 338 340 341 341 339 339 340 343 346 351 354 356 357 357 356 357 359 0 360 360 359 360 1 3 7 10 13 17 19 20 19 18 14 9 4 359 357 356 355 353 351 352 359 11 31 61 100 127 132 134 138 140 139 139 140 140
201 236 274 279 283 289 294 296 297 300 306 310 310 314 318 316 314 317 319 317 316 317 317 318 320 323 325 327 328 330 332 334 336 335 335 336 338 341 346 350 353 355 356 356 357 358 359 359 360 359 358 358 359 360 2 6 9 12 14 16 15 13 11 8 4 2 2 2 0 357 354 358 12 28 46 83 112 119 125 132 134 135 137 138 138
239 254 270 280 287 291 293 293 295 298 303 306 306 310 313 313 311 313 315 315 316 316 316 316 317 318 320 322 322 323 325 328 330 331 332 332 334 337 342 346 349 350 352 354 355 356 357 357 358 358 358 358 359 358 359 2 5 6 8 10 9 8 6 5 6 8 9 6 3 1 1 6 20 31 40 63 90 103 115 123 124 128 135 137 136
257 265 272 277 283 287 288 287 289 292 297 302 304 306 309 311 311 311 311 312 312 312 313 315 316 316 317 319 319 319 319 321 323 326 328 330 332 335 338 342 344 345 347 349 351 353 354 354 355 356 356 356 358 358 359 1 4 5 5 5 4 2 0 360 2 6 9 9 8 6 6 11 21 30 38 56 79 99 113 119 121 127 132 132 134
263 268 273 275 278 281 282 281 284 289 294 299 302 305 308 309 308 309 311 311 309 309 312 314 314 315 317 319 319 319 319 319 319 321 323 325 328 331 334 337 339 340 341 343 345 347 349 350 351 352 353 354 355 356 357 359 0 1 1 359 358 357 357 358 359 360 2 7 9 7 6 8 15 28 47 65 82 105 121 125 129 135 136 134 136
266 268 272 274 276 280 279 278 282 290 295 298 301 303 304 303 303 306 311 311 311 312 313 313 313 315 316 317 318 319 319 318 319 319 320 321 323 326 329 331 333 335 336 337 339 341 343 345 346 348 349 350 351 353 354 354 355 356 356 354 352 352 355 357 358 358 358 1 3 2 2 2 3 13 37 64 85 113 131 137 141 145 144 143 145
267 269 272 273 275 278 279 280 285 291 295 297 298 299 299 299 301 304 307 308 310 312 313 313 313 313 313 314 315 315 316 317 318 319 320 321 322 324 325 326 327 328 329 331 332 334 336 339 341 343 344 344 345 347 348 349 350 351 350 348 347 349 352 355 356 358 358 359 358 358 357 355 352 351 355 6 48 124 141 147 152 153 151 149 151